(89836) = 1999 XJ229 = 2002 CM15

Discovered at Socorro on 2002-02-07 by LINEAR.

Orbit

Orbit type: Jupiter Trojan

Note: WebGL enabled browser required.

epoch2024-03-31.0
epoch JD2460400.5
perihelion date2024-03-19.19850
perihelion JD2460388.69850
argument of perihelion (°)8.64034
ascending node (°)86.37705
inclination (°)2.37667
eccentricity0.0156586
perihelion distance (AU)4.9920390
Tisserand w.r.t. Jupiter3.0
ΔV w.r.t. Earth (km/sec)12.4
semimajor axis (AU)5.0714506
mean anomaly (°)1.01846
mean daily motion (°/day)0.08629900
aphelion distance (AU)5.151
period (years)11.42
P-vector [x]-0.08732900
P-vector [y]0.91148085
P-vector [z]0.40196555
Q-vector [x]-0.99531947
Q-vector [y]-0.09659858
Q-vector [z]0.00280496
absolute magnitude13.15
phase slope0.15
uncertainty0
referenceMPEC 2024-E23
observations used612
oppositions22
arc length (days)23111
first opposition used1960
last opposition used2024
residual rms (arc-secs)0.66
perturbers coarse indicatorM-v
perturbers precise indicator003Ek
first observation date used1960-09-24.0
last observation date used2024-01-03.0
computer nameMPCLINUX
JD of orbit computation2456760.795284
perihelion JD uncertainty (days)3.3911E-03
argument of perihelion uncertainty (°)3.2531E-04
ascending node uncertainty (°)1.4603E-04
inclination uncertainty (°)5.7445E-06
eccentricity uncertainty 5.5566E-08
perihelion distance uncertainty (AU)3.5485E-07
Minimum Orbit Intersection Distances (in AU)
for orbit epoch: 2460400.5, reference: E2024-E23
Mercury4.66743
Venus4.27263
Earth4.00925
Mars3.355
Jupiter0.02323
Saturn4.05205
Uranus13.3951
Neptune24.7833

Observations

630 total observations over interval: 1960 09 24.38750 – 2024 01 03.330951
These data are available for download (format description).

Date (UT) J2000 RA J2000 Dec Magn Location Ref
1960 09 24.38750 00 34 58.50 +00 38 46.0 20.5   675 – Palomar Mountain MPS 285257
1960 09 24.41180 00 34 57.82 +00 38 41.1 20.0   675 – Palomar Mountain MPS 285257
1960 09 28.39722 00 33 05.14 +00 26 38.7 19.5   675 – Palomar Mountain MPS 285257
1991 03 15.34709 11 56 46.72 +03 31 18.2 21.5 V 691 – Steward Observatory, Kitt Peak-Spacewatch MPS 78247
1991 03 15.36725 11 56 46.15 +03 31 21.1 21.2 V 691 – Steward Observatory, Kitt Peak-Spacewatch MPS 78247
1991 03 15.38752 11 56 45.54 +03 31 25.3 21.9 V 691 – Steward Observatory, Kitt Peak-Spacewatch MPS 78247
1999 12 02.96409 04 25 25.55 +20 43 17.6   557 – Ondrejov MPS 9171
1999 12 02.96987 04 25 25.35 +20 43 16.8   557 – Ondrejov MPS 9171
1999 12 02.98818 04 25 24.70 +20 43 15.1 19.7 V 557 – Ondrejov MPS 9171
1999 12 06.08789 04 23 39.89 +20 40 05.4   557 – Ondrejov MPS 9171
1999 12 06.09328 04 23 39.63 +20 40 04.0 19.9 V 557 – Ondrejov MPS 9171
1999 12 06.09822 04 23 39.59 +20 40 03.9   557 – Ondrejov MPS 9171
1999 12 06.10322 04 23 39.41 +20 40 03.8   557 – Ondrejov MPS 9171
1999 12 06.10859 04 23 39.19 +20 40 03.9   557 – Ondrejov MPS 9171
2000 12 04.48427 07 06 27.55 +23 10 43.1 20.5 V 691 – Steward Observatory, Kitt Peak-Spacewatch MPS 50118
2000 12 04.50842 07 06 26.95 +23 10 44.6 20.3 V 691 – Steward Observatory, Kitt Peak-Spacewatch MPS 50118
2000 12 04.53094 07 06 26.38 +23 10 45.6 20.6 V 691 – Steward Observatory, Kitt Peak-Spacewatch MPS 50118
2002 01 14.29918 09 24 25.58 +17 25 49.1 20.3 V 691 – Steward Observatory, Kitt Peak-Spacewatch MPS 50118
2002 01 14.30859 09 24 25.37 +17 25 49.6 20.1   644 – Palomar Mountain/NEAT MPS 50118
2002 01 14.32121 09 24 24.99 +17 25 52.5 20.5 V 691 – Steward Observatory, Kitt Peak-Spacewatch MPS 50118
2002 01 14.34326 09 24 24.41 +17 25 55.8 20.6 V 691 – Steward Observatory, Kitt Peak-Spacewatch MPS 50118
2002 01 14.38335 09 24 23.36 +17 26 01.1 20.4   644 – Palomar Mountain/NEAT MPS 50118
2002 01 14.38499 09 24 23.31 +17 26 01.4 19.6   704 – Lincoln Laboratory ETS, New Mexico MPS 50118
2002 01 14.40017 09 24 22.93 +17 26 04.6 20.6   704 – Lincoln Laboratory ETS, New Mexico MPS 50118
2002 01 14.41537 09 24 22.51 +17 26 05.8 20.4   704 – Lincoln Laboratory ETS, New Mexico MPS 50118
2002 01 14.43067 09 24 22.04 +17 26 08.5 20.3   704 – Lincoln Laboratory ETS, New Mexico MPS 50118
2002 01 14.44645 09 24 21.61 +17 26 09.9 19.7   704 – Lincoln Laboratory ETS, New Mexico MPS 50118
2002 01 14.45065 09 24 21.54 +17 26 10.7 20.4   644 – Palomar Mountain/NEAT MPS 50118
2002 02 07.32827 09 12 17.74 +18 27 27.6 19.9   704 – Lincoln Laboratory ETS, New Mexico MPS 50118
2002 02 07.34271 09 12 17.24 +18 27 29.7 19.6   704 – Lincoln Laboratory ETS, New Mexico MPS 50118
2002 02 07.35713 09 12 16.78 +18 27 31.2 19.9   704 – Lincoln Laboratory ETS, New Mexico MPS 50118
2002 02 07.37172 09 12 16.39 +18 27 34.2 19.5   704 – Lincoln Laboratory ETS, New Mexico MPS 50118
2002 02 08.18955 09 11 50.15 +18 29 35.3 19.1 R 649 – Powell Observatory, Louisburg MPS 50118
2002 02 08.22841 09 11 48.92 +18 29 40.9 19.1 R 649 – Powell Observatory, Louisburg MPS 50118
2002 02 08.25270 09 11 48.12 +18 29 44.6 19.1 R 649 – Powell Observatory, Louisburg MPS 50118
2002 02 08.58019 09 11 37.64 +18 30 36.6   413 – Siding Spring Observatory MPS 50118
2002 02 08.58457 09 11 37.47 +18 30 37.2   413 – Siding Spring Observatory MPS 50118
2002 02 08.58894 09 11 37.34 +18 30 38.4   413 – Siding Spring Observatory MPS 50118
2002 02 08.94104 09 11 25.98 +18 31 25.8   620 – Observatorio Astronomico de Mallorca MPS 50118
2002 02 08.95799 09 11 25.47 +18 31 29.8   620 – Observatorio Astronomico de Mallorca MPS 50118
2002 02 08.96903 09 11 25.21 +18 31 31.6   620 – Observatorio Astronomico de Mallorca MPS 50118
2002 02 10.23163 09 10 45.02 +18 34 37.9 19.4   704 – Lincoln Laboratory ETS, New Mexico MPS 50118
2002 02 10.23188 09 10 45.05 +18 34 38.3 19.2   704 – Lincoln Laboratory ETS, New Mexico MPS 50118
2002 02 10.23842 09 10 44.70 +18 34 39.7 20.0   704 – Lincoln Laboratory ETS, New Mexico MPS 50118
2002 02 10.24577 09 10 44.50 +18 34 40.8 20.2   704 – Lincoln Laboratory ETS, New Mexico MPS 50118
2002 02 10.24601 09 10 44.56 +18 34 40.4 19.5   704 – Lincoln Laboratory ETS, New Mexico MPS 50118
2002 02 10.25255 09 10 44.16 +18 34 42.6 20.2   704 – Lincoln Laboratory ETS, New Mexico MPS 50118
2002 02 10.26282 09 10 44.00 +18 34 42.3 19.8   704 – Lincoln Laboratory ETS, New Mexico MPS 50118
2002 02 10.26307 09 10 44.00 +18 34 42.9 19.9   704 – Lincoln Laboratory ETS, New Mexico MPS 50118
2002 02 10.26961 09 10 43.74 +18 34 45.2 20.3   704 – Lincoln Laboratory ETS, New Mexico MPS 50118
2002 02 10.27696 09 10 43.49 +18 34 44.6 19.6   704 – Lincoln Laboratory ETS, New Mexico MPS 50118
2002 02 10.27720 09 10 43.52 +18 34 44.4 19.5   704 – Lincoln Laboratory ETS, New Mexico MPS 50118
2002 02 10.28482 09 10 43.25 +18 34 46.9 19.9   704 – Lincoln Laboratory ETS, New Mexico MPS 50118
2002 02 10.29266 09 10 43.03 +18 34 46.8 19.6   704 – Lincoln Laboratory ETS, New Mexico MPS 50118
2002 02 10.29290 09 10 43.02 +18 34 46.8 19.8   704 – Lincoln Laboratory ETS, New Mexico MPS 50118
2002 02 10.29990 09 10 42.70 +18 34 48.8 19.4   704 – Lincoln Laboratory ETS, New Mexico MPS 50118
2002 02 11.30194 09 10 10.82 +18 37 15.4 19.5   704 – Lincoln Laboratory ETS, New Mexico MPS 50118
2002 02 11.31618 09 10 10.31 +18 37 17.0 19.9   704 – Lincoln Laboratory ETS, New Mexico MPS 50118
2002 02 11.33043 09 10 09.84 +18 37 19.5 19.9   704 – Lincoln Laboratory ETS, New Mexico MPS 50118
2002 02 11.34458 09 10 09.43 +18 37 20.7 19.5 R 649 – Powell Observatory, Louisburg MPS 50118
2002 02 11.34467 09 10 09.44 +18 37 21.7 20.1   704 – Lincoln Laboratory ETS, New Mexico MPS 50118
2002 02 11.35891 09 10 08.96 +18 37 23.1 19.6   704 – Lincoln Laboratory ETS, New Mexico MPS 50118
2002 02 11.36913 09 10 08.58 +18 37 23.7 19.3 R 649 – Powell Observatory, Louisburg MPS 50118
2002 02 11.65069 09 09 59.71 +18 38 07.5 19.7 R 413 – Siding Spring Observatory MPS 50118
2002 02 11.65390 09 09 59.59 +18 38 08.2   413 – Siding Spring Observatory MPS 50118
2002 02 11.65711 09 09 59.51 +18 38 08.7   413 – Siding Spring Observatory MPS 50118
2002 02 12.24041 09 09 41.06 +18 39 31.1 19.6   704 – Lincoln Laboratory ETS, New Mexico MPS 52604
2002 02 12.25466 09 09 40.66 +18 39 32.9 20.1   704 – Lincoln Laboratory ETS, New Mexico MPS 52604
2002 02 12.26888 09 09 40.17 +18 39 35.6 19.8   704 – Lincoln Laboratory ETS, New Mexico MPS 52604
2002 02 12.28334 09 09 39.70 +18 39 37.4 19.8   704 – Lincoln Laboratory ETS, New Mexico MPS 52604
2002 02 12.29757 09 09 39.24 +18 39 39.1 19.9   704 – Lincoln Laboratory ETS, New Mexico MPS 52604
2002 03 12.13333 08 57 23.95 +19 30 26.0 20.4   644 – Palomar Mountain/NEAT MPS 52604
2002 03 12.15413 08 57 23.58 +19 30 27.7 20.3   644 – Palomar Mountain/NEAT MPS 52604
2002 03 12.17529 08 57 23.14 +19 30 28.6 20.8   644 – Palomar Mountain/NEAT MPS 52604
2003 04 07.12737 11 09 33.55 +08 28 50.2 21.5 V 691 – Steward Observatory, Kitt Peak-Spacewatch MPS 76133
2003 04 07.15410 11 09 32.99 +08 28 53.6 21.7 V 691 – Steward Observatory, Kitt Peak-Spacewatch MPS 76133
2003 04 07.18054 11 09 32.33 +08 28 56.5 21.8 V 691 – Steward Observatory, Kitt Peak-Spacewatch MPS 76133
2004 03 19.39926 13 32 17.98 -06 47 40.8 20.2   704 – Lincoln Laboratory ETS, New Mexico MPS 102152
2004 03 19.41042 13 32 17.78 -06 47 38.2 19.5   704 – Lincoln Laboratory ETS, New Mexico MPS 102152
2004 03 19.42155 13 32 17.47 -06 47 37.3 19.9   704 – Lincoln Laboratory ETS, New Mexico MPS 102152
2004 03 23.38849 13 30 39.62 -06 37 26.7 20.0 V 691 – Steward Observatory, Kitt Peak-Spacewatch MPS 102152
2004 03 23.41628 13 30 38.88 -06 37 22.2 20.2 V 691 – Steward Observatory, Kitt Peak-Spacewatch MPS 102152
2004 03 23.44488 13 30 38.14 -06 37 18.2 20.7 V 691 – Steward Observatory, Kitt Peak-Spacewatch MPS 102152
2004 04 13.29553 13 20 52.91 -05 39 16.4 20.0 V 691 – Steward Observatory, Kitt Peak-Spacewatch MPS 104261
2004 04 13.32381 13 20 52.06 -05 39 11.6 20.1 V 691 – Steward Observatory, Kitt Peak-Spacewatch MPS 104261
2004 04 13.35325 13 20 51.18 -05 39 06.7 20.3 V 691 – Steward Observatory, Kitt Peak-Spacewatch MPS 104261
